Location: Unspecified
(0.0000°N, 0.0000°E)
Time: 21:09:19
(UTC+00:00)

ISS - Pass Details

Date: 11 January 2026
Orbit: 414 x 424 km, 51.6° (Epoch: 13 January)

Event Time Altitude Azimuth Distance (km) Brightness Sun altitude
Exits shadow 04:15:58 31° 125° (SE) 764 -1.9 -25.8°
Drops below altitude 10° 04:17:55 10° 136° (SE) 1,505 -0.1 -25.4°
Sets 04:20:02 0° 139° (SE) 2,372 1.1 -24.9°
